Time,TemperatureF,DewpointF,PressureIn,WindDirection,WindDirectionDegrees,WindSpeedMPH,WindSpeedGustMPH,Humidity,HourlyPrecipIn,Conditions,Clouds,dailyrainin,SoftwareType,DateUTC
2013-04-30 00:02:00,58.0,54.0,29.83,South,171,4.0,6.0,85,0.00,,,0.00,,2013-04-30 05:02:00,
2013-04-30 00:12:00,58.0,54.0,29.83,South,171,4.0,6.0,85,0.00,,,0.00,,2013-04-30 05:12:00,
2013-04-30 00:22:00,58.0,53.0,29.83,South,170,4.0,9.0,83,0.00,,,0.00,,2013-04-30 05:22:00,
2013-04-30 00:31:00,58.0,53.0,29.83,South,175,5.0,8.0,83,0.00,,,0.00,,2013-04-30 05:31:00,
2013-04-30 00:42:00,58.0,53.0,29.83,South,175,5.0,8.0,83,0.00,,,0.00,,2013-04-30 05:42:00,
2013-04-30 00:51:00,58.0,53.0,29.84,SSE,160,5.0,9.0,82,0.00,,,0.00,,2013-04-30 05:51:00,
2013-04-30 01:02:00,58.0,53.0,29.83,South,175,5.0,8.0,84,0.00,,,0.00,,2013-04-30 06:02:00,
2013-04-30 01:12:00,58.0,53.0,29.83,South,175,5.0,8.0,84,0.00,,,0.00,,2013-04-30 06:12:00,
2013-04-30 01:21:00,58.0,54.0,29.82,SSE,155,6.0,10.0,85,0.00,,,0.00,,2013-04-30 06:21:00,
2013-04-30 01:32:00,58.0,54.0,29.83,SSE,163,6.0,9.0,85,0.00,,,0.00,,2013-04-30 06:32:00,
2013-04-30 01:41:00,58.0,54.0,29.83,SSE,163,6.0,9.0,85,0.00,,,0.00,,2013-04-30 06:41:00,
2013-04-30 01:52:00,58.0,54.0,29.82,SSE,159,5.0,10.0,85,0.00,,,0.00,,2013-04-30 06:52:00,
2013-04-30 02:01:00,58.0,53.0,29.83,SSE,147,7.0,11.0,84,0.00,,,0.00,,2013-04-30 07:01:00,
2013-04-30 02:11:00,58.0,53.0,29.83,SSE,147,7.0,11.0,84,0.00,,,0.00,,2013-04-30 07:11:00,
2013-04-30 02:21:00,58.0,53.0,29.84,SSE,154,5.0,9.0,83,0.00,,,0.00,,2013-04-30 07:21:00,
2013-04-30 02:31:00,58.0,53.0,29.84,South,173,5.0,8.0,83,0.00,,,0.00,,2013-04-30 07:31:00,
2013-04-30 02:42:00,58.0,53.0,29.84,South,173,5.0,8.0,83,0.00,,,0.00,,2013-04-30 07:42:00,
2013-04-30 02:52:00,58.0,53.0,29.83,SSE,167,5.0,9.0,83,0.00,,,0.00,,2013-04-30 07:52:00,
2013-04-30 03:02:00,57.0,52.0,29.83,SSE,161,7.0,11.0,84,0.00,,,0.00,,2013-04-30 08:02:00,
2013-04-30 03:11:00,57.0,52.0,29.83,SSE,161,7.0,11.0,84,0.00,,,0.00,,2013-04-30 08:11:00,
2013-04-30 03:21:00,57.0,52.0,29.83,South,169,6.0,10.0,84,0.00,,,0.00,,2013-04-30 08:21:00,
2013-04-30 03:32:00,57.0,52.0,29.83,South,169,6.0,10.0,84,0.00,,,0.00,,2013-04-30 08:32:00,
2013-04-30 03:42:00,57.0,52.0,29.83,South,169,6.0,10.0,84,0.00,,,0.00,,2013-04-30 08:42:00,
2013-04-30 03:52:00,57.0,52.0,29.83,SW,222,7.0,12.0,84,0.00,,,0.00,,2013-04-30 08:52:00,
2013-04-30 04:01:00,57.0,53.0,29.83,SSE,150,6.0,10.0,85,0.00,,,0.00,,2013-04-30 09:01:00,
2013-04-30 04:11:00,57.0,53.0,29.83,SSE,150,6.0,10.0,85,0.00,,,0.00,,2013-04-30 09:11:00,
2013-04-30 04:22:00,57.0,53.0,29.84,South,170,6.0,12.0,85,0.00,,,0.00,,2013-04-30 09:22:00,
2013-04-30 04:33:00,57.0,53.0,29.84,South,177,5.0,9.0,85,0.00,,,0.00,,2013-04-30 09:33:00,
2013-04-30 04:43:00,57.0,53.0,29.84,South,177,5.0,9.0,85,0.00,,,0.00,,2013-04-30 09:43:00,
2013-04-30 04:52:00,56.0,52.0,29.84,SSE,161,5.0,9.0,86,0.00,,,0.00,,2013-04-30 09:52:00,
2013-04-30 05:03:00,56.0,52.0,29.84,SSE,153,5.0,9.0,86,0.00,,,0.00,,2013-04-30 10:03:00,
2013-04-30 05:11:00,56.0,52.0,29.84,SSE,153,5.0,9.0,86,0.00,,,0.00,,2013-04-30 10:11:00,
2013-04-30 05:22:00,56.0,52.0,29.84,SSE,164,5.0,8.0,86,0.00,,,0.00,,2013-04-30 10:22:00,
2013-04-30 05:32:00,56.0,52.0,29.83,South,172,5.0,9.0,87,0.00,,,0.00,,2013-04-30 10:32:00,
2013-04-30 05:41:00,56.0,52.0,29.83,South,172,5.0,9.0,87,0.00,,,0.00,,2013-04-30 10:41:00,
2013-04-30 05:52:00,56.0,52.0,29.83,SSE,167,4.0,9.0,87,0.00,,,0.00,,2013-04-30 10:52:00,
2013-04-30 06:02:00,56.0,52.0,29.84,SSE,162,5.0,9.0,87,0.00,,,0.00,,2013-04-30 11:02:00,
2013-04-30 06:11:00,56.0,52.0,29.84,SSE,162,5.0,9.0,87,0.00,,,0.00,,2013-04-30 11:11:00,
2013-04-30 06:21:00,56.0,52.0,29.85,SSE,152,5.0,10.0,87,0.00,,,0.00,,2013-04-30 11:21:00,
2013-04-30 06:31:00,56.0,52.0,29.85,SSE,149,5.0,11.0,87,0.00,,,0.00,,2013-04-30 11:31:00,
2013-04-30 06:42:00,56.0,52.0,29.85,SSE,149,5.0,11.0,87,0.00,,,0.00,,2013-04-30 11:42:00,
2013-04-30 06:51:00,56.0,52.0,29.85,SSE,163,6.0,11.0,87,0.00,,,0.00,,2013-04-30 11:51:00,
2013-04-30 07:01:00,57.0,53.0,29.86,SSE,153,5.0,11.0,86,0.00,,,0.00,,2013-04-30 12:01:00,
2013-04-30 07:11:00,57.0,53.0,29.86,SSE,153,5.0,11.0,86,0.00,,,0.00,,2013-04-30 12:11:00,
2013-04-30 07:21:00,57.0,53.0,29.88,South,174,3.0,11.0,86,0.00,,,0.00,,2013-04-30 12:21:00,
2013-04-30 07:31:00,58.0,53.0,29.87,South,177,5.0,13.0,84,0.00,,,0.00,,2013-04-30 12:31:00,
2013-04-30 07:41:00,58.0,53.0,29.87,South,177,5.0,13.0,84,0.00,,,0.00,,2013-04-30 12:41:00,
2013-04-30 07:51:00,59.0,54.0,29.88,SSE,158,5.0,13.0,83,0.00,,,0.00,,2013-04-30 12:51:00,
2013-04-30 08:01:00,60.0,54.0,29.88,South,186,7.0,12.0,82,0.00,,,0.00,,2013-04-30 13:01:00,
2013-04-30 08:11:00,60.0,54.0,29.88,South,186,7.0,12.0,82,0.00,,,0.00,,2013-04-30 13:11:00,
2013-04-30 08:21:00,61.0,55.0,29.88,South,171,6.0,13.0,81,0.00,,,0.00,,2013-04-30 13:21:00,
2013-04-30 08:31:00,62.0,55.0,29.88,South,179,6.0,10.0,79,0.00,,,0.00,,2013-04-30 13:31:00,
2013-04-30 08:41:00,62.0,55.0,29.88,South,179,6.0,10.0,79,0.00,,,0.00,,2013-04-30 13:41:00,
2013-04-30 08:52:00,63.0,56.0,29.88,SW,214,5.0,12.0,79,0.00,,,0.00,,2013-04-30 13:52:00,
2013-04-30 09:02:00,64.0,56.0,29.88,SSW,213,7.0,13.0,76,0.00,,,0.00,,2013-04-30 14:02:00,
2013-04-30 09:11:00,64.0,56.0,29.88,SSW,213,7.0,13.0,76,0.00,,,0.00,,2013-04-30 14:11:00,
2013-04-30 09:21:00,64.0,57.0,29.88,WSW,237,7.0,11.0,77,0.00,,,0.00,,2013-04-30 14:21:00,
2013-04-30 09:31:00,65.0,57.0,29.88,SSW,200,7.0,14.0,75,0.00,,,0.00,,2013-04-30 14:31:00,
2013-04-30 09:41:00,65.0,57.0,29.88,SSW,200,7.0,14.0,75,0.00,,,0.00,,2013-04-30 14:41:00,
2013-04-30 09:52:00,67.0,58.0,29.88,SSW,206,6.0,11.0,74,0.00,,,0.00,,2013-04-30 14:52:00,
2013-04-30 10:01:00,68.0,59.0,29.88,SSW,205,5.0,12.0,74,0.00,,,0.00,,2013-04-30 15:01:00,
2013-04-30 10:11:00,68.0,59.0,29.88,SSW,205,5.0,12.0,74,0.00,,,0.00,,2013-04-30 15:11:00,
2013-04-30 10:21:00,68.0,58.0,29.87,SSW,209,8.0,13.0,71,0.00,,,0.00,,2013-04-30 15:21:00,
2013-04-30 10:32:00,69.0,60.0,29.87,South,187,6.0,14.0,73,0.00,,,0.00,,2013-04-30 15:32:00,
2013-04-30 10:42:00,69.0,60.0,29.87,South,187,6.0,14.0,73,0.00,,,0.00,,2013-04-30 15:42:00,
2013-04-30 10:52:00,70.0,60.0,29.88,SW,215,7.0,15.0,70,0.00,,,0.00,,2013-04-30 15:52:00,
2013-04-30 11:02:00,70.0,60.0,29.88,SW,215,9.0,17.0,70,0.00,,,0.00,,2013-04-30 16:02:00,
2013-04-30 11:12:00,70.0,60.0,29.88,SW,215,9.0,17.0,70,0.00,,,0.00,,2013-04-30 16:12:00,
2013-04-30 11:23:00,71.0,61.0,29.88,SW,216,6.0,12.0,71,0.00,,,0.00,,2013-04-30 16:23:00,
2013-04-30 11:33:00,72.0,61.0,29.88,SSW,199,7.0,17.0,69,0.00,,,0.00,,2013-04-30 16:33:00,
2013-04-30 11:42:00,72.0,61.0,29.88,SSW,199,7.0,17.0,69,0.00,,,0.00,,2013-04-30 16:42:00,
2013-04-30 11:52:00,73.0,62.0,29.88,SSW,202,8.0,14.0,68,0.00,,,0.00,,2013-04-30 16:52:00,
2013-04-30 12:02:00,73.0,62.0,29.88,SSW,199,7.0,14.0,69,0.00,,,0.00,,2013-04-30 17:02:00,
2013-04-30 12:12:00,73.0,62.0,29.88,SSW,199,7.0,14.0,69,0.00,,,0.00,,2013-04-30 17:12:00,
2013-04-30 12:22:00,74.0,62.0,29.87,SSW,207,7.0,13.0,66,0.00,,,0.00,,2013-04-30 17:22:00,
2013-04-30 12:32:00,75.0,62.0,29.87,SSW,204,7.0,16.0,65,0.00,,,0.00,,2013-04-30 17:32:00,
2013-04-30 12:42:00,75.0,62.0,29.87,SSW,204,7.0,16.0,65,0.00,,,0.00,,2013-04-30 17:42:00,
2013-04-30 12:52:00,76.0,62.0,29.87,SSW,192,6.0,13.0,63,0.00,,,0.00,,2013-04-30 17:52:00,
2013-04-30 13:01:00,77.0,63.0,29.87,SSW,201,7.0,13.0,61,0.00,,,0.00,,2013-04-30 18:01:00,
2013-04-30 13:11:00,77.0,63.0,29.87,SSW,201,7.0,13.0,61,0.00,,,0.00,,2013-04-30 18:11:00,
2013-04-30 13:22:00,77.0,62.0,29.86,South,172,9.0,16.0,59,0.00,,,0.00,,2013-04-30 18:22:00,
2013-04-30 13:32:00,77.0,63.0,29.86,SSW,203,8.0,13.0,62,0.00,,,0.00,,2013-04-30 18:32:00,
2013-04-30 13:41:00,77.0,63.0,29.86,SSW,203,8.0,13.0,62,0.00,,,0.00,,2013-04-30 18:41:00,
2013-04-30 13:52:00,79.0,65.0,29.86,South,181,5.0,12.0,62,0.00,,,0.00,,2013-04-30 18:52:00,
2013-04-30 14:01:00,79.0,64.0,29.85,SE,146,7.0,18.0,61,0.00,,,0.00,,2013-04-30 19:01:00,
2013-04-30 14:11:00,79.0,64.0,29.85,SE,146,7.0,18.0,61,0.00,,,0.00,,2013-04-30 19:11:00,
2013-04-30 14:22:00,79.0,64.0,29.86,SW,223,7.0,16.0,61,0.00,,,0.00,,2013-04-30 19:22:00,
2013-04-30 14:32:00,80.0,63.0,29.85,SW,230,7.0,13.0,57,0.00,,,0.00,,2013-04-30 19:32:00,
2013-04-30 14:42:00,80.0,63.0,29.85,SW,230,7.0,13.0,57,0.00,,,0.00,,2013-04-30 19:42:00,
2013-04-30 14:52:00,80.0,63.0,29.85,SSW,198,7.0,14.0,57,0.00,,,0.00,,2013-04-30 19:52:00,
2013-04-30 15:02:00,80.0,62.0,29.85,South,189,7.0,13.0,54,0.00,,,0.00,,2013-04-30 20:02:00,
2013-04-30 15:11:00,80.0,62.0,29.85,South,189,7.0,13.0,54,0.00,,,0.00,,2013-04-30 20:11:00,
2013-04-30 15:21:00,81.0,61.0,29.85,South,176,8.0,13.0,51,0.00,,,0.00,,2013-04-30 20:21:00,
2013-04-30 15:32:00,81.0,61.0,29.84,South,179,8.0,14.0,51,0.00,,,0.00,,2013-04-30 20:32:00,
2013-04-30 15:42:00,81.0,61.0,29.84,South,179,8.0,14.0,51,0.00,,,0.00,,2013-04-30 20:42:00,
2013-04-30 15:52:00,81.0,61.0,29.84,SSW,199,7.0,11.0,50,0.00,,,0.00,,2013-04-30 20:52:00,
2013-04-30 16:01:00,82.0,63.0,29.84,WSW,238,5.0,12.0,52,0.00,,,0.00,,2013-04-30 21:01:00,
2013-04-30 16:11:00,82.0,63.0,29.84,WSW,238,5.0,12.0,52,0.00,,,0.00,,2013-04-30 21:11:00,
2013-04-30 16:22:00,82.0,60.0,29.84,SSW,210,9.0,17.0,48,0.00,,,0.00,,2013-04-30 21:22:00,
2013-04-30 16:32:00,82.0,61.0,29.85,SW,223,6.0,11.0,49,0.00,,,0.00,,2013-04-30 21:32:00,
2013-04-30 16:42:00,82.0,61.0,29.85,SW,223,6.0,11.0,49,0.00,,,0.00,,2013-04-30 21:42:00,
2013-04-30 16:53:00,82.0,61.0,29.85,SW,223,6.0,11.0,49,0.00,,,0.00,,2013-04-30 21:53:00,
2013-04-30 17:02:00,81.0,61.0,29.85,South,179,7.0,14.0,51,0.00,,,0.00,,2013-04-30 22:02:00,
2013-04-30 17:12:00,81.0,61.0,29.85,South,179,7.0,14.0,51,0.00,,,0.00,,2013-04-30 22:12:00,
2013-04-30 17:23:00,81.0,62.0,29.85,South,186,5.0,13.0,52,0.00,,,0.00,,2013-04-30 22:23:00,
2013-04-30 17:32:00,81.0,62.0,29.86,South,188,7.0,14.0,52,0.00,,,0.00,,2013-04-30 22:32:00,
2013-04-30 17:41:00,81.0,62.0,29.86,South,188,7.0,14.0,52,0.00,,,0.00,,2013-04-30 22:41:00,
2013-04-30 17:53:00,81.0,63.0,29.87,South,181,6.0,13.0,55,0.00,,,0.00,,2013-04-30 22:53:00,
2013-04-30 18:02:00,80.0,62.0,29.88,SSW,204,7.0,13.0,55,0.00,,,0.00,,2013-04-30 23:02:00,
2013-04-30 18:12:00,80.0,62.0,29.88,SSW,204,7.0,13.0,55,0.00,,,0.00,,2013-04-30 23:12:00,
2013-04-30 18:22:00,80.0,63.0,29.88,SSW,211,5.0,11.0,56,0.00,,,0.00,,2013-04-30 23:22:00,
2013-04-30 18:32:00,80.0,62.0,29.88,South,179,6.0,15.0,54,0.00,,,0.00,,2013-04-30 23:32:00,
2013-04-30 18:42:00,80.0,62.0,29.88,South,179,6.0,15.0,54,0.00,,,0.00,,2013-04-30 23:42:00,
2013-04-30 18:52:00,79.0,62.0,29.89,SSW,205,5.0,10.0,56,0.00,,,0.00,,2013-04-30 23:52:00,
2013-04-30 19:02:00,78.0,61.0,29.89,SSW,196,6.0,12.0,56,0.00,,,0.00,,2013-05-01 00:02:00,
2013-04-30 19:11:00,78.0,61.0,29.89,SSW,196,6.0,12.0,56,0.00,,,0.00,,2013-05-01 00:11:00,
2013-04-30 19:21:00,78.0,62.0,29.89,ESE,123,5.0,9.0,58,0.00,,,0.00,,2013-05-01 00:21:00,
2013-04-30 19:32:00,76.0,61.0,29.89,SSE,161,4.0,8.0,60,0.00,,,0.00,,2013-05-01 00:32:00,
2013-04-30 19:42:00,76.0,61.0,29.89,SSE,161,4.0,8.0,60,0.00,,,0.00,,2013-05-01 00:42:00,
2013-04-30 19:52:00,76.0,62.0,29.89,South,178,4.0,9.0,62,0.00,,,0.00,,2013-05-01 00:52:00,
2013-04-30 20:01:00,75.0,62.0,29.90,South,169,4.0,9.0,63,0.00,,,0.00,,2013-05-01 01:01:00,
2013-04-30 20:11:00,75.0,62.0,29.90,South,169,4.0,9.0,63,0.00,,,0.00,,2013-05-01 01:11:00,
2013-04-30 20:21:00,74.0,61.0,29.90,South,176,4.0,8.0,64,0.00,,,0.00,,2013-05-01 01:21:00,
2013-04-30 20:31:00,73.0,61.0,29.91,SSE,152,3.0,6.0,67,0.00,,,0.00,,2013-05-01 01:31:00,
2013-04-30 20:41:00,73.0,61.0,29.91,SSE,152,3.0,6.0,67,0.00,,,0.00,,2013-05-01 01:41:00,
2013-04-30 20:52:00,72.0,60.0,29.91,SSE,159,4.0,7.0,67,0.00,,,0.00,,2013-05-01 01:52:00,
2013-04-30 21:02:00,71.0,61.0,29.91,SSE,166,4.0,7.0,70,0.00,,,0.00,,2013-05-01 02:02:00,
2013-04-30 21:11:00,71.0,61.0,29.91,SSE,166,4.0,7.0,70,0.00,,,0.00,,2013-05-01 02:11:00,
2013-04-30 21:21:00,71.0,61.0,29.92,SSE,155,4.0,7.0,71,0.00,,,0.00,,2013-05-01 02:21:00,
2013-04-30 21:32:00,70.0,61.0,29.93,South,175,4.0,7.0,72,0.00,,,0.00,,2013-05-01 02:32:00,
2013-04-30 21:42:00,70.0,61.0,29.93,South,175,4.0,7.0,72,0.00,,,0.00,,2013-05-01 02:42:00,
2013-04-30 21:52:00,71.0,61.0,29.93,SSW,194,4.0,8.0,70,0.00,,,0.00,,2013-05-01 02:52:00,
2013-04-30 22:01:00,70.0,60.0,29.93,SSE,167,3.0,8.0,70,0.00,,,0.00,,2013-05-01 03:01:00,
2013-04-30 22:11:00,70.0,60.0,29.93,SSE,167,3.0,8.0,70,0.00,,,0.00,,2013-05-01 03:11:00,
2013-04-30 22:21:00,69.0,59.0,29.93,SE,134,3.0,7.0,71,0.00,,,0.00,,2013-05-01 03:21:00,
2013-04-30 22:33:00,70.0,60.0,29.93,SE,128,5.0,10.0,70,0.00,,,0.00,,2013-05-01 03:33:00,
2013-04-30 22:43:00,70.0,60.0,29.93,SE,128,5.0,10.0,70,0.00,,,0.00,,2013-05-01 03:43:00,
2013-04-30 22:53:00,72.0,60.0,29.93,SSE,165,5.0,11.0,66,0.00,,,0.00,,2013-05-01 03:53:00,
2013-04-30 23:03:00,71.0,59.0,29.93,SSE,161,3.0,8.0,66,0.00,,,0.00,,2013-05-01 04:03:00,
2013-04-30 23:12:00,71.0,59.0,29.93,SSE,161,3.0,8.0,66,0.00,,,0.00,,2013-05-01 04:12:00,
2013-04-30 23:22:00,70.0,59.0,29.93,South,169,4.0,7.0,68,0.00,,,0.00,,2013-05-01 04:22:00,
2013-04-30 23:32:00,70.0,59.0,29.93,South,169,4.0,7.0,68,0.00,,,0.00,,2013-05-01 04:32:00,
2013-04-30 23:42:00,70.0,59.0,29.93,South,169,4.0,7.0,68,0.00,,,0.00,,2013-05-01 04:42:00,
2013-04-30 23:52:00,66.0,58.0,29.93,SSE,167,3.0,6.0,76,0.00,,,0.00,,2013-05-01 04:52:00,